Flag for U.S.A. Weather past 2 weeks in Kodiak, Alaska, U.S.A.

Now
20 °F

Passing clouds.


Feels Like: 12 °F
Forecast: 24 / 35 °F
Wind: 6 mph from West

Location: Kodiak Weather Reporting Station

Current Time: Jan 26, 2015 at 12:20:51 AM

Latest Report: Jan 25, 2015 at 11:53 PM


Visibility: 10 mi

Pressure: 29.89 "Hg

Humidity: 82%

Dew point: 15 °F

Location of KodiakLocation

Historic Weather in Kodiak — Graph

°F

Kodiak temperature yesterday

Maximum temperature yesterday: 28 °F (at 1:53 PM)
Minimum temperature yesterday: 17 °F (at 9:53 PM)
Average temperature yesterday: 24 °F

Past Weeks' High & Low Weather Summary

 TemperatureHumidityPressure
High45 °F (Jan 12, 4:53 PM)100% (Jan 11, 1:53 AM)29.89 "Hg (Jan 11, 1:53 AM)
Low17 °F (Jan 25, 9:53 PM)41% (Jan 24, 12:53 PM)28.54 "Hg (Jan 15, 3:57 AM)
Average37 °F86%29.30 "Hg
* Reported Jan 10 10:53 PM — Jan 25 10:53 PM, Kodiak, Weather by CustomWeather, © 2014

Note: Actual official high and low records may vary slightly from our data, if they occured in-between our weather recording intervals... More about our weather records

Advertising

Kodiak weather history for previous 24 hours

 ConditionsComfort  
Time TempWeatherWind HumidityBarometerVisibility
10:53 PM
Jan 25
18 °FPartly cloudy.6 mph84%29.89 "Hg10 mi
9:53 PM17 °FPartly cloudy.7 mph80%29.88 "Hg10 mi
8:53 PM18 °FPassing clouds.7 mph77%29.88 "Hg10 mi
7:53 PM19 °FPassing clouds.7 mph74%29.87 "Hg10 mi
6:53 PM20 °FPassing clouds.7 mph71%29.86 "Hg10 mi
5:53 PM24 °FPassing clouds.7 mph60%29.84 "Hg10 mi
4:53 PM26 °FBroken clouds.5 mph52%29.83 "Hg10 mi
3:53 PM28 °FBroken clouds.9 mph51%29.80 "Hg10 mi
2:53 PM28 °FBroken clouds.7 mph49%29.79 "Hg10 mi
1:53 PM28 °FBroken clouds.8 mph45%29.78 "Hg10 mi
12:53 PM26 °FBroken clouds.No wind52%29.78 "Hg10 mi
11:53 AM25 °FBroken clouds.5 mph55%29.76 "Hg10 mi
10:53 AM24 °FBroken clouds.6 mph57%29.74 "Hg10 mi
9:53 AM24 °FScattered clouds.5 mph55%29.72 "Hg10 mi
8:53 AM23 °FPassing clouds.No wind57%29.69 "Hg10 mi
7:53 AM22 °FClear.No wind66%29.67 "Hg10 mi
6:53 AM24 °FClear.15 mph60%29.66 "Hg10 mi
5:53 AM25 °FClear.8 mph55%29.63 "Hg10 mi
4:53 AM25 °FClear.14 mph53%29.61 "Hg10 mi
3:53 AM25 °FClear.3 mph55%29.59 "Hg10 mi
2:53 AM26 °FClear.8 mph55%29.57 "Hg10 mi
1:53 AM26 °FClear.7 mph57%29.56 "Hg10 mi
12:53 AM26 °FClear.7 mph57%29.55 "Hg10 mi
Weather by CustomWeather, © 2014

See weather overviewHow to use our weather pages